Le nostre stazioni meteo in Italia

Pubblicità
Il mio iltempo24.it
Capo Spartivento, Italia (16469): Temperatura & dewpoint: 17.01.2019 05:00:00 - 23.01.2019 05:00:00 (CET)Capo Spartivento, Italia (16469): velocità del vento: 17.01.2019 05:00:00 - 23.01.2019 05:00:00 (CET)Capo Spartivento, Italia (16469): direzione del vento: 17.01.2019 05:00:00 - 23.01.2019 05:00:00 (CET)Capo Spartivento, Italia (16469): reduced air pressure: 17.01.2019 05:00:00 - 23.01.2019 05:00:00 (CET)Capo Spartivento, Italia (16469): precipitazioni: 17.01.2019 05:00:00 - 23.01.2019 05:00:00 (CET)
Data & Tempo tt [°C] td [°C] ff [km/h] ff [kn] dd ppp [hPa] rr [mm]
23.01.2019 05:00:00 - - - - - - -
23.01.2019 04:00:00 - - - - - - -
23.01.2019 03:00:00 - - - - - - -
23.01.2019 02:00:00 - - - - - - -
23.01.2019 01:00:00 - - - - - - -
23.01.2019 00:00:00 - - - - - - -
22.01.2019 23:00:00 - - - - - - -
22.01.2019 22:00:00 - - - - - - -
22.01.2019 21:00:00 - - - - - - -
22.01.2019 20:00:00 - - - - - - -
22.01.2019 19:00:00 - - - - - - -
22.01.2019 18:00:00 - - - - - - -
22.01.2019 17:00:00 - - - - - - -
22.01.2019 16:00:00 - - - - - - -
22.01.2019 15:00:00 - - - - - - -
22.01.2019 14:00:00 - - - - - - -
22.01.2019 13:00:00 - - - - - - -
22.01.2019 12:00:00 - - - - - - -
22.01.2019 11:00:00 - - - - - - -
22.01.2019 10:00:00 - - - - - - -
22.01.2019 09:00:00 - - - - - - -
22.01.2019 08:00:00 - - - - - - -
22.01.2019 07:00:00 - - - - - - -
22.01.2019 06:00:00 - - - - - - -
22.01.2019 05:00:00 - - - - - - -
22.01.2019 04:00:00 - - - - - - -
22.01.2019 03:00:00 - - - - - - -
22.01.2019 02:00:00 - - - - - - -
22.01.2019 01:00:00 12,5 12,5 9 5 N 1009,0 -
22.01.2019 00:00:00 12,0 12,0 11 6 NNO 1009,6 -
21.01.2019 23:00:00 11,7 11,7 11 6 NNO 1009,9 -
21.01.2019 22:00:00 12,7 12,7 2 1 SE 1009,8 -
21.01.2019 21:00:00 11,7 11,7 9 5 NO 1010,4 -
21.01.2019 20:00:00 11,3 11,3 9 5 NO 1010,7 -
21.01.2019 19:00:00 11,8 11,8 11 6 NO 1010,4 -
21.01.2019 18:00:00 11,7 11,7 2 1 OSO 1011,0 -
21.01.2019 17:00:00 11,9 11,9 5 3 SSE 1010,8 -
21.01.2019 16:00:00 11,7 11,7 11 6 O 1010,9 -
21.01.2019 15:00:00 14,0 11,5 4 2 E 1011,1 -
21.01.2019 14:00:00 14,0 10,8 4 2 SE 1011,4 -
21.01.2019 13:00:00 15,0 11,0 5 3 S 1012,1 0,0
21.01.2019 12:00:00 14,9 11,8 5 3 S 1012,8 -
21.01.2019 11:00:00 14,3 11,6 4 2 ESE 1013,6 -
21.01.2019 10:00:00 12,2 11,6 5 3 NNO 1013,8 -
21.01.2019 09:00:00 11,5 11,3 8 4 NNO 1013,6 -
21.01.2019 08:00:00 10,8 9,9 9 5 NO 1013,5 -
21.01.2019 07:00:00 10,8 9,0 8 4 NO 1013,4 0,0
21.01.2019 06:00:00 11,0 8,9 9 5 NNO 1013,0 -
21.01.2019 05:00:00 10,8 8,9 5 3 NO 1012,9 -
21.01.2019 04:00:00 10,8 8,9 5 3 NO 1013,3 -
21.01.2019 03:00:00 10,6 8,8 8 4 ONO 1013,7 -
21.01.2019 02:00:00 11,0 9,4 8 4 NO 1013,7 -
21.01.2019 01:00:00 11,2 9,3 5 3 O 1013,6 0,0
21.01.2019 00:00:00 11,2 9,3 8 4 ONO 1013,9 -
20.01.2019 23:00:00 11,3 9,0 8 4 ONO 1013,8 -
20.01.2019 22:00:00 11,4 9,5 11 6 O 1013,6 -
20.01.2019 21:00:00 11,7 9,8 5 3 NO 1013,2 -
20.01.2019 20:00:00 11,9 10,0 8 4 O 1013,2 -
20.01.2019 19:00:00 11,8 10,4 9 5 ONO 1013,0 -
20.01.2019 18:00:00 11,7 9,9 11 6 O 1012,7 -
20.01.2019 17:00:00 12,7 9,7 9 5 NNO 1012,3 -
20.01.2019 16:00:00 14,2 10,6 9 5 NNE 1012,1 -
20.01.2019 15:00:00 14,7 11,3 11 6 NNE 1011,9 -
20.01.2019 14:00:00 14,7 11,4 13 7 NNE 1012,1 -
20.01.2019 13:00:00 14,1 11,0 15 8 NNE 1012,7 0,0
20.01.2019 12:00:00 13,9 10,5 15 8 NNE 1013,3 -
20.01.2019 11:00:00 13,7 10,7 16 9 NNE 1013,8 -
20.01.2019 10:00:00 12,7 10,0 13 7 NNO 1013,7 -
20.01.2019 09:00:00 12,2 9,7 11 6 NNO 1013,5 -
20.01.2019 08:00:00 10,9 8,8 9 5 NO 1013,1 -
20.01.2019 07:00:00 10,8 8,5 9 5 ONO 1012,9 0,0
20.01.2019 06:00:00 10,7 8,8 11 6 ONO 1012,5 -
20.01.2019 05:00:00 11,0 8,9 9 5 ONO 1012,5 -
20.01.2019 04:00:00 11,3 7,7 9 5 ONO 1012,6 -
20.01.2019 03:00:00 11,8 6,9 9 5 O 1012,9 -
20.01.2019 02:00:00 11,7 6,8 9 5 O 1013,0 -
20.01.2019 01:00:00 11,5 6,6 11 6 O 1013,1 0,0
20.01.2019 00:00:00 11,4 7,1 15 8 ONO 1013,5 -
19.01.2019 23:00:00 11,5 7,2 8 4 ONO 1013,7 -
19.01.2019 22:00:00 11,8 7,7 8 4 NO 1013,4 -
19.01.2019 21:00:00 11,6 8,6 9 5 NO 1013,1 -
19.01.2019 20:00:00 11,9 9,1 13 7 NO 1012,7 -
19.01.2019 19:00:00 11,9 10,0 8 4 NO 1012,7 0,0
19.01.2019 18:00:00 12,2 10,1 5 3 ONO 1012,4 -
19.01.2019 17:00:00 13,3 10,6 8 4 ENE 1012,2 -
19.01.2019 16:00:00 14,2 11,1 18 10 S 1011,8 -
19.01.2019 15:00:00 14,8 10,8 15 8 S 1012,0 -
19.01.2019 14:00:00 15,1 11,1 9 5 SE 1012,3 -
19.01.2019 13:00:00 15,9 11,8 5 3 ENE 1012,9 0,0
19.01.2019 12:00:00 14,1 10,1 9 5 NE 1013,7 -
19.01.2019 11:00:00 14,4 10,4 9 5 NNE 1014,2 -
19.01.2019 10:00:00 13,2 9,0 9 5 NNO 1014,0 -
19.01.2019 09:00:00 12,2 8,6 4 2 NO 1013,7 -
19.01.2019 08:00:00 10,8 7,6 11 6 O 1013,4 -
19.01.2019 07:00:00 11,6 8,2 5 3 O 1013,1 -
19.01.2019 06:00:00 11,1 8,1 21 11 NNO 1012,8 -
19.01.2019 05:00:00 10,8 8,5 18 10 NO 1012,8 -
19.01.2019 04:00:00 11,0 10,1 21 11 NO 1013,5 -
19.01.2019 03:00:00 10,2 8,1 18 10 NNO 1013,8 -
19.01.2019 02:00:00 11,4 9,5 11 6 NNO 1013,9 -
19.01.2019 01:00:00 11,4 8,8 11 6 NO 1014,4 -
19.01.2019 00:00:00 11,6 10,3 24 13 SO 1014,5 -
18.01.2019 23:00:00 13,2 10,0 4 2 ENE 1015,3 -
18.01.2019 22:00:00 13,2 9,4 4 2 N 1014,9 -
18.01.2019 21:00:00 12,8 8,6 4 2 ONO 1014,8 -
18.01.2019 20:00:00 13,4 9,8 13 7 SO 1014,9 -
18.01.2019 19:00:00 12,8 10,3 8 4 S 1015,2 0,0
18.01.2019 18:00:00 13,1 11,0 15 8 SO 1014,8 -
18.01.2019 17:00:00 13,8 11,3 9 5 SO 1015,0 -
18.01.2019 16:00:00 14,6 11,5 18 10 S 1014,6 -
18.01.2019 15:00:00 15,0 12,1 18 10 S 1014,5 -
18.01.2019 14:00:00 15,0 13,6 16 9 S 1014,7 -
18.01.2019 13:00:00 15,3 12,9 15 8 S 1015,2 0,0
18.01.2019 12:00:00 14,4 12,2 11 6 SSE 1016,0 -
18.01.2019 11:00:00 13,8 12,0 15 8 S 1016,7 -
18.01.2019 10:00:00 13,1 11,8 13 7 S 1016,9 -
18.01.2019 09:00:00 13,3 11,3 9 5 NNE 1016,3 -
18.01.2019 08:00:00 12,5 10,7 11 6 E 1016,2 -
18.01.2019 07:00:00 12,0 10,4 11 6 SSO 1016,1 0,0
18.01.2019 06:00:00 12,2 11,3 11 6 S 1015,8 -
18.01.2019 05:00:00 12,2 11,9 13 7 NNE 1016,0 -
18.01.2019 04:00:00 12,3 12,0 13 7 SO 1016,4 -
18.01.2019 03:00:00 12,7 12,7 16 9 NNO 1016,9 -
18.01.2019 02:00:00 12,8 12,8 15 8 NE 1017,3 -
18.01.2019 01:00:00 12,6 12,6 13 7 O 1017,5 0,0
18.01.2019 00:00:00 12,6 12,6 13 7 E 1018,0 -
17.01.2019 23:00:00 12,5 12,5 11 6 NNO 1018,5 -
17.01.2019 22:00:00 12,4 12,4 11 6 SE 1018,5 -
17.01.2019 21:00:00 12,6 12,6 13 7 S 1018,5 -
17.01.2019 20:00:00 12,4 12,4 11 6 O 1018,5 -
17.01.2019 19:00:00 12,2 12,2 15 8 NE 1018,7 -
17.01.2019 18:00:00 11,6 11,6 9 5 NO 1018,6 -
17.01.2019 17:00:00 11,8 11,8 9 5 SSO 1018,6 -
17.01.2019 16:00:00 12,8 11,0 9 5 OSO 1018,8 -
17.01.2019 15:00:00 12,9 10,9 11 6 O 1019,1 -
17.01.2019 14:00:00 12,8 10,3 16 9 SSO 1019,4 -
17.01.2019 13:00:00 13,7 10,3 22 12 ENE 1019,7 0,0
17.01.2019 12:00:00 13,5 9,7 21 11 NNO 1020,5 -
17.01.2019 11:00:00 13,4 6,4 22 12 SSO 1021,1 -
17.01.2019 10:00:00 12,8 3,1 16 9 SSO 1021,1 -
17.01.2019 09:00:00 11,4 3,6 11 6 OSO 1020,9 -
17.01.2019 08:00:00 10,6 1,8 15 8 E 1020,7 -
17.01.2019 07:00:00 10,5 -3,0 9 5 O 1020,7 0,0
17.01.2019 06:00:00 10,3 -1,2 9 5 NE 1020,6 -
17.01.2019 05:00:00 10,6 5,9 15 8 SE 1020,5 -

tt = Temperatura
td = dewpoint
ff = velocità del vento
dd = direzione del vento
ppp = reduced air pressure
rr = precipitazioni

Stazioni seguenti

WeatherPro
AMSI
MeteoEarth